Flag for India Weather past 2 weeks in Nagercoil, Tamil Nadu, India

Now
88 °F

Passing clouds.


Feels Like: 100 °F
Forecast: 78 / 86 °F
Wind: 8 mph from West

Location: Thiruvananthapuram

Current Time: Sep 15, 2014 at 3:37:04 PM

Latest Report: Sep 15, 2014 at 3:10 PM


Visibility: 4 mi

Pressure: 29.74 "Hg

Humidity: 70%

Dew point: 77 °F

Location of NagercoilLocation

Historic Weather in Nagercoil — Graph

°F

Nagercoil temperature yesterday

Maximum temperature yesterday: 88 °F (at 1:10 PM)
Minimum temperature yesterday: 77 °F (at 4:40 AM)
Average temperature yesterday: 82 °F

Past Weeks' High & Low Weather Summary

 TemperatureHumidityPressure
High90 °F (Sep 1, 1:40 PM)94% (Sep 1, 7:40 PM)29.89 "Hg (Sep 1, 7:40 PM)
Low75 °F (Sep 1, 5:10 AM)62% (Sep 13, 12:10 PM)29.68 "Hg (Aug 31, 3:10 PM)
Average82 °F80%29.82 "Hg
* Reported Aug 31 12:40 PM — Sep 15 1:10 PM, Nagercoil, Weather by CustomWeather, © 2014

Note: Actual official high and low records may vary slightly from our data, if they occured in-between our weather recording intervals... More about our weather records

Advertising

Nagercoil weather history for previous 24 hours

 ConditionsComfort  
Time TempWeatherWind HumidityBarometerVisibility
1:10 PM
Sep 15
88 °FPassing clouds.9 mph70%29.77 "Hg4 mi
12:40 PM88 °FPassing clouds.8 mph70%29.80 "Hg4 mi
12:10 PM88 °FPassing clouds.9 mph70%29.80 "Hg4 mi
11:10 AM86 °FPassing clouds.8 mph75%29.83 "Hg4 mi
10:10 AM86 °FPassing clouds.8 mph75%29.86 "Hg4 mi
9:40 AM86 °FPassing clouds.5 mph75%29.83 "Hg4 mi
9:10 AM84 °FPassing clouds.6 mph74%29.83 "Hg4 mi
8:40 AM82 °FScattered clouds.7 mph79%29.83 "Hg4 mi
7:40 AM81 °FScattered clouds.5 mph79%29.83 "Hg2 mi
7:10 AM79 °FScattered clouds.6 mph84%29.80 "Hg2 mi
6:10 AM79 °FPartly cloudy.5 mph84%29.77 "Hg2 mi
5:10 AM79 °FPassing clouds.6 mph84%29.77 "Hg2 mi
4:40 AM79 °FPartly cloudy.5 mph84%29.77 "Hg2 mi
3:10 AM79 °FPartly cloudy.No wind84%29.77 "Hg2 mi
2:10 AM79 °FPartly cloudy.No wind84%29.80 "Hg2 mi
1:40 AM79 °FPartly cloudy.3 mph84%29.80 "Hg2 mi
1:10 AM79 °FPartly cloudy.3 mph84%29.80 "Hg2 mi
12:40 AM79 °FPartly cloudy.3 mph84%29.83 "Hg2 mi
12:10 AM79 °FPartly cloudy.5 mph84%29.83 "Hg2 mi
11:10 PM
Sep 14
81 °FPartly cloudy.5 mph84%29.86 "Hg2 mi
10:10 PM81 °FPartly cloudy.5 mph84%29.86 "Hg2 mi
9:10 PM81 °FPartly cloudy.5 mph84%29.83 "Hg2 mi
8:10 PM81 °FMostly cloudy.5 mph84%29.83 "Hg2 mi
7:10 PM81 °FLight rain. Mostly cloudy.7 mph84%29.80 "Hg2 mi
6:40 PM82 °FLight rain. Broken clouds.7 mph79%29.80 "Hg2 mi
6:10 PM82 °FRain. Broken clouds.9 mph79%29.80 "Hg2 mi
5:10 PM84 °FBroken clouds.8 mph79%29.77 "Hg3 mi
Weather by CustomWeather, © 2014

See weather overviewHow to use our weather pages